UAL1496 PHKO-PHNL

Flight info

Callsign UAL1496
Flight time 0h 34m
Altitude 12000
Route AMERY4 AMERY V20 HOKLA JULLE5
Aircraft B38M/M-SDE1FGHILORVWXY/HB1

Departure

Time 2026-04-24 00:39
Airport Ellison Onizuka Kona International Airport at Keāhole (PHKO)

Arrival

Time 2026-04-24 01:14
Airport Daniel K. Inouye International Airport (PHNL)
Time Latitude Longitude Altitude Speed Heading
2026-04-24 00:08 19.73724 -156.04218 65 ft 0 kts 95°
2026-04-24 00:32 19.73724 -156.04221 46 ft 1 kts 95°
2026-04-24 00:32 19.73724 -156.04227 45 ft 1 kts 95°
2026-04-24 00:33 19.73725 -156.04232 44 ft 1 kts 95°
2026-04-24 00:33 19.73725 -156.04237 43 ft 1 kts 95°
2026-04-24 00:33 19.73726 -156.04243 44 ft 1 kts 95°
2026-04-24 00:33 19.73726 -156.04249 43 ft 1 kts 95°
2026-04-24 00:34 19.73727 -156.04263 40 ft 3 kts 95°
2026-04-24 00:34 19.73729 -156.04288 39 ft 3 kts 95°
2026-04-24 00:34 19.73724 -156.04311 41 ft 3 kts
2026-04-24 00:34 19.73719 -156.04311 42 ft 0 kts 359°
2026-04-24 00:35 19.73732 -156.04312 40 ft 8 kts 356°
2026-04-24 00:35 19.73823 -156.04314 43 ft 18 kts
2026-04-24 00:36 19.73976 -156.04304 43 ft 25 kts
2026-04-24 00:36 19.74161 -156.04290 44 ft 28 kts
2026-04-24 00:36 19.74358 -156.04271 48 ft 29 kts
2026-04-24 00:36 19.74556 -156.04250 51 ft 29 kts
2026-04-24 00:37 19.74759 -156.04232 52 ft 30 kts
2026-04-24 00:37 19.74964 -156.04214 49 ft 31 kts
2026-04-24 00:37 19.75172 -156.04197 48 ft 28 kts
2026-04-24 00:37 19.75337 -156.04196 47 ft 17 kts 329°
2026-04-24 00:38 19.75359 -156.04277 43 ft 10 kts 278°
2026-04-24 00:38 19.75368 -156.04350 43 ft 10 kts 276°
2026-04-24 00:38 19.75352 -156.04418 41 ft 11 kts 218°
2026-04-24 00:38 19.75185 -156.04449 48 ft 52 kts 186°
2026-04-24 00:39 19.74593 -156.04501 49 ft 119 kts 185°
2026-04-24 00:39 19.73631 -156.04595 293 ft 144 kts 187°
2026-04-24 00:39 19.72631 -156.04691 763 ft 144 kts 189°
2026-04-24 00:39 19.71641 -156.04957 1113 ft 154 kts 205°
2026-04-24 00:40 19.70704 -156.05469 1650 ft 145 kts 214°
2026-04-24 00:40 19.69906 -156.06145 2011 ft 152 kts 229°
2026-04-24 00:40 19.69343 -156.07106 2434 ft 153 kts 250°
2026-04-24 00:40 19.69145 -156.08178 2944 ft 148 kts 273°
2026-04-24 00:41 19.69462 -156.09258 3157 ft 164 kts 308°
2026-04-24 00:41 19.70415 -156.09899 3576 ft 164 kts 351°
2026-04-24 00:41 19.71491 -156.09766 4101 ft 158 kts
2026-04-24 00:41 19.72595 -156.09873 4427 ft 164 kts 348°
2026-04-24 00:42 19.73751 -156.10113 4728 ft 179 kts 348°
2026-04-24 00:42 19.75028 -156.10447 4957 ft 204 kts 339°
2026-04-24 00:42 19.76403 -156.11212 4988 ft 244 kts 324°
2026-04-24 00:42 19.77706 -156.12513 5345 ft 267 kts 308°
2026-04-24 00:43 19.78769 -156.14186 5902 ft 276 kts 301°
2026-04-24 00:43 19.79754 -156.15942 6438 ft 279 kts 302°
2026-04-24 00:43 19.80815 -156.17666 6930 ft 280 kts 304°
2026-04-24 00:43 19.81928 -156.19376 7418 ft 283 kts 304°
2026-04-24 00:44 19.83022 -156.21085 7900 ft 285 kts 304°
2026-04-24 00:44 19.84122 -156.22841 8393 ft 287 kts 303°
2026-04-24 00:44 19.85234 -156.24612 8889 ft 289 kts 304°
2026-04-24 00:44 19.86365 -156.26403 9389 ft 295 kts 303°
2026-04-24 00:45 19.87506 -156.28209 9896 ft 296 kts 303°
2026-04-24 00:45 19.88656 -156.30033 10355 ft 297 kts 304°
2026-04-24 00:45 19.89806 -156.31858 10822 ft 298 kts 304°
2026-04-24 00:45 19.90957 -156.33686 11289 ft 297 kts 304°
2026-04-24 00:46 19.92108 -156.35511 11755 ft 299 kts 305°
2026-04-24 00:46 19.93269 -156.37356 11941 ft 301 kts 305°
2026-04-24 00:46 19.94435 -156.39207 11934 ft 298 kts 305°
2026-04-24 00:46 19.95593 -156.41049 11935 ft 302 kts 305°
2026-04-24 00:47 19.96773 -156.42887 11936 ft 301 kts 306°
2026-04-24 00:47 19.97952 -156.44672 11938 ft 298 kts 306°
2026-04-24 00:47 19.99146 -156.46495 11937 ft 300 kts 306°
2026-04-24 00:47 20.00320 -156.48307 11940 ft 296 kts 306°
2026-04-24 00:48 20.01594 -156.50040 11944 ft 300 kts 314°
2026-04-24 00:48 20.03083 -156.51592 11960 ft 304 kts 317°
2026-04-24 00:48 20.04683 -156.53221 11972 ft 333 kts 316°
2026-04-24 00:48 20.06317 -156.55070 11973 ft 352 kts 313°
2026-04-24 00:49 20.07960 -156.57012 11965 ft 354 kts 313°
2026-04-24 00:49 20.09661 -156.58954 11962 ft 359 kts 314°
2026-04-24 00:49 20.11361 -156.60850 11965 ft 363 kts 315°
2026-04-24 00:49 20.13068 -156.62774 11964 ft 356 kts 313°
2026-04-24 00:50 20.14766 -156.64711 11960 ft 355 kts 314°
2026-04-24 00:50 20.16466 -156.66648 11963 ft 361 kts 314°
2026-04-24 00:50 20.18169 -156.68578 11971 ft 359 kts 314°
2026-04-24 00:50 20.19877 -156.70513 11968 ft 357 kts 314°
2026-04-24 00:51 20.21581 -156.72451 11968 ft 359 kts 314°
2026-04-24 00:51 20.23285 -156.74389 11966 ft 359 kts 314°
2026-04-24 00:51 20.24990 -156.76327 11966 ft 358 kts 314°
2026-04-24 00:51 20.26671 -156.78237 11970 ft 358 kts 314°
2026-04-24 00:52 20.28373 -156.80173 11967 ft 358 kts 314°
2026-04-24 00:52 20.30076 -156.82111 11965 ft 358 kts 314°
2026-04-24 00:52 20.31778 -156.84049 11964 ft 358 kts 314°
2026-04-24 00:52 20.33481 -156.85988 11963 ft 358 kts 314°
2026-04-24 00:53 20.35184 -156.87928 11969 ft 358 kts 314°
2026-04-24 00:53 20.36886 -156.89868 11967 ft 359 kts 314°
2026-04-24 00:53 20.38592 -156.91812 11967 ft 359 kts 314°
2026-04-24 00:53 20.40299 -156.93758 11967 ft 359 kts 314°
2026-04-24 00:54 20.42006 -156.95706 11967 ft 359 kts 314°
2026-04-24 00:54 20.43711 -156.97652 11971 ft 359 kts 314°
2026-04-24 00:54 20.45393 -156.99571 11976 ft 360 kts 314°
2026-04-24 00:54 20.47102 -157.01523 11985 ft 359 kts 314°
2026-04-24 00:55 20.48806 -157.03469 11992 ft 359 kts 314°
2026-04-24 00:55 20.50514 -157.05421 11995 ft 360 kts 314°
2026-04-24 00:55 20.52219 -157.07370 11999 ft 360 kts 314°
2026-04-24 00:55 20.53925 -157.09321 12001 ft 360 kts 314°
2026-04-24 00:56 20.55632 -157.11273 12001 ft 360 kts 314°
2026-04-24 00:56 20.57338 -157.13225 12002 ft 360 kts 314°
2026-04-24 00:56 20.59019 -157.15150 12002 ft 360 kts 314°
2026-04-24 00:56 20.60728 -157.17106 12004 ft 360 kts 314°
2026-04-24 00:57 20.62430 -157.19056 12006 ft 359 kts 314°
2026-04-24 00:57 20.64135 -157.21010 12004 ft 360 kts 314°
2026-04-24 00:57 20.67521 -157.24891 11996 ft 356 kts 314°
2026-04-24 00:58 20.69211 -157.26829 11996 ft 357 kts 314°
2026-04-24 00:58 20.70898 -157.28765 11988 ft 357 kts 314°
2026-04-24 00:58 20.72571 -157.30686 11854 ft 346 kts 314°
2026-04-24 00:58 20.74180 -157.32535 11708 ft 333 kts 314°
2026-04-24 00:59 20.75732 -157.34318 11571 ft 322 kts 314°
2026-04-24 00:59 20.77233 -157.36043 11420 ft 312 kts 313°
2026-04-24 00:59 20.78688 -157.37714 11276 ft 303 kts 314°
2026-04-24 00:59 20.80078 -157.39312 11112 ft 288 kts 314°
2026-04-24 01:00 20.81388 -157.40820 10925 ft 272 kts 314°
2026-04-24 01:00 20.82690 -157.42316 10780 ft 277 kts 314°
2026-04-24 01:00 20.83974 -157.43793 10624 ft 267 kts 313°
2026-04-24 01:00 20.85257 -157.45270 10492 ft 269 kts 314°
2026-04-24 01:01 20.86535 -157.46739 10367 ft 273 kts 313°
2026-04-24 01:01 20.87819 -157.48219 10241 ft 271 kts 313°
2026-04-24 01:01 20.89108 -157.49704 10124 ft 270 kts 313°
2026-04-24 01:01 20.90391 -157.51183 10002 ft 271 kts 313°
2026-04-24 01:02 20.91643 -157.52625 9971 ft 267 kts 314°
2026-04-24 01:02 20.92862 -157.54132 9970 ft 270 kts 298°
2026-04-24 01:02 20.93318 -157.56073 9996 ft 270 kts 275°
2026-04-24 01:02 20.93808 -157.58010 9836 ft 275 kts 294°
2026-04-24 01:03 20.94590 -157.59870 8876 ft 274 kts 294°
2026-04-24 01:03 20.95371 -157.61729 8053 ft 273 kts 298°
2026-04-24 01:03 20.96278 -157.63444 7732 ft 260 kts 302°
2026-04-24 01:03 20.97209 -157.65128 7484 ft 262 kts 301°
2026-04-24 01:04 20.97818 -157.66239 7305 ft 263 kts 302°
2026-04-24 01:04 20.98857 -157.68580 6911 ft 265 kts 290°
2026-04-24 01:04 20.99396 -157.70452 6573 ft 261 kts 288°
2026-04-24 01:04 20.99943 -157.72318 6221 ft 262 kts 291°
2026-04-24 01:05 21.00584 -157.74142 5860 ft 260 kts 293°
2026-04-24 01:05 21.01029 -157.75350 5607 ft 258 kts 293°
2026-04-24 01:05 21.01679 -157.77165 5277 ft 270 kts 292°
2026-04-24 01:05 21.02504 -157.78998 4976 ft 278 kts 304°
2026-04-24 01:06 21.03581 -157.80709 4644 ft 277 kts 309°
2026-04-24 01:06 21.04706 -157.82376 4304 ft 278 kts 309°
2026-04-24 01:06 21.05850 -157.84049 4006 ft 276 kts 309°
2026-04-24 01:06 21.06961 -157.85692 3977 ft 272 kts 309°
2026-04-24 01:07 21.08087 -157.87330 3984 ft 275 kts 310°
2026-04-24 01:07 21.09209 -157.88982 3980 ft 271 kts 309°
2026-04-24 01:07 21.10326 -157.90623 3988 ft 275 kts 310°
2026-04-24 01:07 21.11430 -157.92278 3993 ft 272 kts 309°
2026-04-24 01:08 21.12533 -157.93921 3754 ft 278 kts 310°
2026-04-24 01:08 21.13663 -157.95603 3385 ft 278 kts 310°
2026-04-24 01:08 21.14792 -157.97281 3016 ft 277 kts 309°
2026-04-24 01:08 21.15912 -157.98958 2661 ft 276 kts 309°
2026-04-24 01:09 21.17023 -158.00631 2297 ft 275 kts 310°
2026-04-24 01:09 21.18114 -158.02303 2005 ft 270 kts 309°
2026-04-24 01:09 21.19150 -158.03921 1988 ft 259 kts 309°
2026-04-24 01:09 21.20181 -158.05514 1989 ft 259 kts 312°
2026-04-24 01:10 21.22051 -158.06722 2004 ft 227 kts
2026-04-24 01:10 21.23079 -158.06642 1995 ft 214 kts 14°
2026-04-24 01:10 21.24325 -158.05971 2000 ft 197 kts 46°
2026-04-24 01:10 21.25083 -158.04816 1981 ft 188 kts 64°
2026-04-24 01:11 21.25511 -158.03552 1999 ft 170 kts 72°
2026-04-24 01:11 21.25791 -158.02310 1998 ft 175 kts 73°
2026-04-24 01:11 21.26048 -158.01084 2003 ft 170 kts 75°
2026-04-24 01:11 21.26431 -157.99911 1997 ft 164 kts 61°
2026-04-24 01:12 21.27112 -157.98863 1515 ft 178 kts 50°
2026-04-24 01:12 21.27812 -157.97796 1129 ft 171 kts 58°
2026-04-24 01:12 21.28522 -157.96734 931 ft 176 kts 50°
2026-04-24 01:12 21.29276 -157.95713 718 ft 175 kts 51°
2026-04-24 01:13 21.29974 -157.94746 512 ft 151 kts 54°
2026-04-24 01:13 21.30590 -157.93858 301 ft 141 kts 53°
2026-04-24 01:13 21.31162 -157.93041 113 ft 135 kts 54°
2026-04-24 01:13 21.31718 -157.92258 12 ft 131 kts 53°
2026-04-24 01:14 21.32125 -157.91679 10 ft 59 kts 53°
2026-04-24 01:14 21.32300 -157.91454 8 ft 32 kts 39°
2026-04-24 01:14 21.32443 -157.91362 8 ft 7 kts 20°
2026-04-24 01:14 21.32455 -157.91357 9 ft 0 kts 20°
2026-04-24 01:15 21.32477 -157.91349 9 ft 16 kts 17°
2026-04-24 01:15 21.32698 -157.91309 12 ft 28 kts
2026-04-24 01:15 21.32771 -157.91372 12 ft 15 kts 271°
2026-04-24 01:15 21.32774 -157.91500 12 ft 19 kts 271°
2026-04-24 01:16 21.32775 -157.91657 15 ft 23 kts 269°
2026-04-24 01:16 21.32778 -157.91843 12 ft 22 kts 274°
2026-04-24 01:16 21.32828 -157.91923 12 ft 7 kts
2026-04-24 01:16 21.32877 -157.91956 12 ft 11 kts 307°
2026-04-24 01:17 21.32909 -157.91988 13 ft 0 kts 320°
2026-04-24 01:17 21.32908 -157.91987 13 ft 0 kts 320°
2026-04-24 01:17 21.32907 -157.91986 13 ft 0 kts 320°
2026-04-24 01:21 21.32908 -157.91986 13 ft 0 kts 320°
2026-04-24 01:25 21.32907 -157.91986 13 ft 0 kts 320°
2026-04-24 01:26 21.32908 -157.91986 13 ft 0 kts 320°
2026-04-24 01:27 21.32907 -157.91986 13 ft 0 kts 320°